Okmulgee, OK

11:35 AM CDT on June 27, 2017 (GMT -0500)
Okmulgee Regional

Weather History for KOKM - October, 2013

Change the Weather History Date:

Friday, October 11, 2013

  Actual Average (KMKO) Record (KMKO)
Temperature  
Mean Temperature 70 °F -  
Max Temperature 83 °F 73 °F 87 °F (2015)
Min Temperature 58 °F 49 °F 42 °F (1996)
Cooling Degree Days 5    
Growing Degree Days 20 (Base 50)    
Moisture  
Dew Point 63 °F    
Average Humidity 79    
Maximum Humidity 93    
Minimum Humidity 59    
Precipitation  
Precipitation 0.00 in - - ()
Sea Level Pressure  
Sea Level Pressure 29.85 in    
Wind  
Wind Speed 9 mph (SSE)    
Max Wind Speed 22 mph    
Max Gust Speed 32 mph    
Visibility 10 miles    
Events      
Averages and records for this station are not official NWS values.
T = Trace of Precipitation, MM = Missing Value Source: NWS Daily Summary

Daily Weather History Graph

Daily Weather History Graph

Search for Another Location

Airport or City:

Trip Planner

Search our weather history database for the weather conditions in past years. The results will help you decide how hot, cold, wet, or windy it might be!

Date:

Astronomy

Oct. 11, 2013 Rise Set
Actual Time 7:27 AM CDT 6:53 PM CDT
Civil Twilight 7:01 AM CDT 7:18 PM CDT
Nautical Twilight 6:31 AM CDT 7:48 PM CDT
Astronomical Twilight 6:02 AM CDT 8:17 PM CDT
Moon 2:03 PM CDT (10/11) No Moon Set
Length of Visible Light 12h 17m
Length of Day
11h 26m
Waxing Crescent, 47% of the Moon is Illuminated
Oct 11
Waxing Crescent
Oct 11
First Quarter
Oct 18
Full
Oct 26
Last Quarter
Nov 3
New

Hourly Weather History & Observations

Time (CDT) Temp. Heat Index Dew Point Humidity Pressure Visibility Wind Dir Wind Speed Gust Speed Precip Events Conditions
12:15 AM 64.2 °F - 56.7 °F 76% 29.88 in 10.0 mi SSE 10.4 mph - N/A   Clear
12:35 AM 64.2 °F - 56.5 °F 76% 29.88 in 10.0 mi SSE 9.2 mph - N/A   Clear
12:55 AM 63.9 °F - 56.5 °F 77% 29.88 in 10.0 mi SSE 10.4 mph - N/A   Clear
1:15 AM 62.8 °F - 56.3 °F 79% 29.88 in 10.0 mi SSE 5.8 mph - N/A   Clear
1:55 AM 61.3 °F - 56.3 °F 83% 29.88 in 10.0 mi SSE 5.8 mph - N/A   Clear
2:15 AM 61.2 °F - 56.3 °F 84% 29.88 in 10.0 mi SSE 4.6 mph - N/A   Clear
2:35 AM 60.3 °F - 55.6 °F 85% 29.88 in 10.0 mi Calm Calm - N/A   Clear
2:55 AM 60.4 °F - 55.8 °F 85% 29.87 in 10.0 mi Calm Calm - N/A   Clear
3:15 AM 60.3 °F - 55.6 °F 85% 29.87 in 10.0 mi Calm Calm - N/A   Clear
3:35 AM 60.1 °F - 55.6 °F 85% 29.87 in 10.0 mi SSE 3.5 mph - N/A   Clear
3:55 AM 59.2 °F - 55.6 °F 88% 29.87 in 10.0 mi SSE 3.5 mph - N/A   Clear
4:15 AM 58.6 °F - 55.6 °F 90% 29.87 in 10.0 mi SE 5.8 mph - N/A   Clear
4:35 AM 59.2 °F - 56.1 °F 90% 29.87 in 10.0 mi SE 5.8 mph - N/A   Clear
4:55 AM 59.2 °F - 56.1 °F 90% 29.87 in 10.0 mi SE 4.6 mph - N/A   Clear
5:15 AM 58.8 °F - 55.8 °F 90% 29.89 in 10.0 mi Calm Calm - N/A   Clear
5:35 AM 60.4 °F - 56.5 °F 87% 29.89 in 10.0 mi SSE 3.5 mph - N/A   Clear
5:55 AM 59.5 °F - 57.2 °F 92% 29.89 in 10.0 mi SE 8.1 mph - N/A   Scattered Clouds
6:15 AM 59.7 °F - 57.4 °F 92% 29.88 in 10.0 mi SSE 5.8 mph - N/A   Scattered Clouds
6:35 AM 61.2 °F - 58.6 °F 91% 29.88 in 10.0 mi SSE 8.1 mph - N/A   Clear
6:55 AM 61.9 °F - 59.4 °F 91% 29.87 in 10.0 mi SSE 8.1 mph - N/A   Clear
7:15 AM 62.1 °F - 59.9 °F 93% 29.87 in 10.0 mi SSE 6.9 mph - N/A   Clear
7:35 AM 62.6 °F - 60.3 °F 92% 29.87 in 10.0 mi SSE 6.9 mph - N/A   Clear
7:55 AM 63.5 °F - 61.0 °F 91% 29.87 in 10.0 mi SSE 8.1 mph - N/A   Clear
8:15 AM 64.6 °F - 61.9 °F 91% 29.87 in 10.0 mi SSE 8.1 mph - N/A   Clear
8:35 AM 65.8 °F - 62.6 °F 89% 29.88 in 10.0 mi SSE 9.2 mph - N/A   Clear
8:55 AM 66.4 °F - 63.0 °F 89% 29.88 in 10.0 mi South 9.2 mph - N/A   Mostly Cloudy
9:15 AM 68.2 °F - 63.7 °F 85% 29.88 in 10.0 mi South 11.5 mph 23.0 mph N/A   Overcast
9:35 AM 70.3 °F - 64.0 °F 80% 29.88 in 10.0 mi South 15.0 mph 25.3 mph N/A   Mostly Cloudy
9:55 AM 72.1 °F - 64.4 °F 77% 29.88 in 10.0 mi South 17.3 mph 27.6 mph N/A   Mostly Cloudy
10:15 AM 71.8 °F - 64.2 °F 77% 29.88 in 10.0 mi South 20.7 mph 27.6 mph N/A   Overcast
10:35 AM 72.7 °F - 64.4 °F 75% 29.87 in 10.0 mi South 18.4 mph 27.6 mph N/A   Overcast
10:55 AM 73.8 °F - 64.8 °F 73% 29.87 in 10.0 mi SSW 21.9 mph 27.6 mph N/A   Overcast
11:15 AM 73.8 °F - 64.8 °F 73% 29.88 in 10.0 mi SSW 17.3 mph 31.1 mph N/A   Overcast
11:35 AM 74.3 °F - 65.3 °F 73% 29.87 in 10.0 mi South 12.7 mph 24.2 mph N/A   Overcast
11:55 AM 74.3 °F - 65.3 °F 73% 29.87 in 10.0 mi SSW 13.8 mph 28.8 mph N/A   Overcast
12:15 PM 75.2 °F - 65.5 °F 72% 29.86 in 10.0 mi South 12.7 mph 27.6 mph N/A   Overcast
12:35 PM 76.5 °F - 65.8 °F 70% 29.86 in 10.0 mi South 12.7 mph 32.2 mph N/A   Overcast
12:55 PM 77.4 °F - 65.7 °F 67% 29.85 in 10.0 mi South 15.0 mph 28.8 mph N/A   Overcast
1:15 PM 78.8 °F - 66.2 °F 65% 29.84 in 10.0 mi SSW 21.9 mph 29.9 mph N/A   Overcast
1:35 PM 77.5 °F - 66.0 °F 68% 29.84 in 10.0 mi South 11.5 mph - N/A   Overcast
1:55 PM 79.0 °F - 66.6 °F 66% 29.82 in 10.0 mi South 12.7 mph 18.4 mph N/A   Mostly Cloudy
2:15 PM 80.8 °F 82.9 °F 66.4 °F 61% 29.82 in 10.0 mi South 17.3 mph 25.3 mph N/A   Mostly Cloudy
2:35 PM 79.5 °F - 66.2 °F 64% 29.82 in 10.0 mi South 15.0 mph 24.2 mph N/A   Overcast
2:55 PM 80.8 °F 82.9 °F 66.2 °F 61% 29.81 in 10.0 mi South 17.3 mph 23.0 mph N/A   Overcast
3:15 PM 82.2 °F 84.6 °F 66.6 °F 59% 29.81 in 10.0 mi South 16.1 mph 24.2 mph N/A   Overcast
3:35 PM 81.0 °F 83.2 °F 66.4 °F 61% 29.81 in 10.0 mi South 15.0 mph 21.9 mph N/A   Overcast
3:55 PM 82.9 °F 85.6 °F 67.1 °F 59% 29.81 in 10.0 mi South 15.0 mph 21.9 mph N/A   Mostly Cloudy
4:15 PM 82.4 °F 84.8 °F 66.7 °F 59% 29.81 in 10.0 mi South 13.8 mph 23.0 mph N/A   Scattered Clouds
4:35 PM 81.5 °F 83.7 °F 66.4 °F 60% 29.80 in 10.0 mi SSE 13.8 mph 25.3 mph N/A   Scattered Clouds
4:55 PM 81.9 °F 84.1 °F 66.2 °F 59% 29.80 in 10.0 mi SSW 16.1 mph 20.7 mph N/A   Scattered Clouds
5:15 PM 81.5 °F 83.7 °F 66.2 °F 60% 29.81 in 10.0 mi South 13.8 mph 25.3 mph N/A   Scattered Clouds
5:35 PM 81.0 °F 83.2 °F 66.6 °F 61% 29.81 in 10.0 mi South 16.1 mph 24.2 mph N/A   Scattered Clouds
5:55 PM 80.2 °F 82.6 °F 66.9 °F 64% 29.81 in 10.0 mi SSE 8.1 mph 18.4 mph N/A   Clear
6:15 PM 78.8 °F - 67.3 °F 68% 29.81 in 10.0 mi SSE 10.4 mph - N/A   Clear
6:35 PM 77.2 °F - 66.9 °F 71% 29.81 in 10.0 mi SSE 9.2 mph - N/A   Clear
6:55 PM 75.4 °F - 66.9 °F 75% 29.82 in 10.0 mi SSE 9.2 mph - N/A   Clear
7:15 PM 73.4 °F - 66.9 °F 80% 29.82 in 10.0 mi SSE 6.9 mph - N/A   Clear
7:35 PM 72.5 °F - 66.7 °F 82% 29.83 in 10.0 mi North - - N/A   Clear
7:55 PM 71.6 °F - 66.7 °F 85% 29.83 in 10.0 mi ESE 9.2 mph 18.4 mph N/A   Clear
8:15 PM 71.4 °F - 67.1 °F 86% 29.84 in 10.0 mi ESE 9.2 mph - N/A   Clear
8:35 PM 70.7 °F - 67.1 °F 88% 29.84 in 10.0 mi ESE 8.1 mph - N/A   Clear
8:55 PM 69.8 °F - 66.7 °F 90% 29.85 in 10.0 mi East 9.2 mph - N/A   Clear
9:15 PM 69.6 °F - 66.6 °F 90% 29.85 in 10.0 mi SE 9.2 mph - N/A   Clear
9:35 PM 69.8 °F - 67.1 °F 91% 29.86 in 10.0 mi SSE 9.2 mph - N/A   Clear
9:55 PM 70.3 °F - 67.3 °F 90% 29.86 in 10.0 mi South 11.5 mph - N/A   Clear
10:15 PM 70.2 °F - 67.3 °F 91% 29.86 in 10.0 mi South 10.4 mph - N/A   Clear
10:35 PM 70.3 °F - 67.5 °F 91% 29.87 in 10.0 mi South 11.5 mph - N/A   Clear
10:55 PM 70.0 °F - 67.5 °F 92% 29.87 in 10.0 mi South 12.7 mph - N/A   Clear
11:15 PM 70.0 °F - 67.3 °F 91% 29.87 in 10.0 mi South 11.5 mph - N/A   Clear
11:35 PM 69.8 °F - 67.3 °F 92% 29.88 in 10.0 mi South 11.5 mph - N/A   Clear
11:55 PM 69.3 °F - 67.1 °F 93% 29.87 in 10.0 mi South 11.5 mph - N/A   Clear